| time (UTC) | temp F | wind direction | speed MPH | gust MPH | rain 1hr in | rain 24hr in | rain mn in | humidity % | barometer mb |
| 20260506234502 | 53 | 97 | 1.0 | 4.0 | 0.00 | 1.60 | 0.00 | 81 | 1010.8 |
| 20260506233112 | 53 | 126 | 0.0 | 2.0 | 0.00 | 1.60 | 0.00 | 80 | 1010.7 |
| 20260506231613 | 54 | 126 | 1.0 | 3.0 | 0.00 | 1.60 | 0.00 | 78 | 1010.8 |
| 20260506230104 | 53 | 82 | 1.0 | 3.0 | 0.00 | 1.60 | 0.00 | 80 | 1011.0 |
| 20260506224555 | 54 | 81 | 1.0 | 3.0 | 0.00 | 1.60 | 0.00 | 80 | 1011.0 |
| 20260506223052 | 54 | 82 | 1.0 | 3.0 | 0.00 | 1.60 | 0.00 | 79 | 1011.0 |
| 20260506221555 | 54 | 88 | 0.0 | 3.0 | 0.00 | 1.60 | 0.00 | 79 | 1010.9 |
| 20260506220048 | 54 | 85 | 1.0 | 3.0 | 0.00 | 1.60 | 0.00 | 80 | 1010.7 |
| 20260506214550 | 53 | 94 | 1.0 | 4.0 | 0.00 | 1.60 | 1.60 | 82 | 1010.7 |
| 20260506213045 | 54 | 304 | 0.0 | 3.0 | 0.00 | 1.60 | 1.60 | 81 | 1010.6 |
| 20260506211545 | 54 | 306 | 0.0 | 0.0 | 0.00 | 1.60 | 1.60 | 81 | 1010.5 |
| 20260506210045 | 54 | 306 | 0.0 | 0.0 | 0.00 | 1.60 | 1.60 | 80 | 1010.5 |
| 20260506204544 | 55 | 306 | 0.0 | 0.0 | 0.00 | 1.60 | 1.60 | 76 | 1010.3 |
| 20260506203044 | 57 | 306 | 0.0 | 2.0 | 0.00 | 1.60 | 1.60 | 75 | 1010.2 |
| 20260506201543 | 57 | 298 | 1.0 | 4.0 | 0.00 | 1.60 | 1.60 | 74 | 1010.1 |
| 20260506200046 | 57 | 114 | 1.0 | 9.0 | 0.00 | 1.60 | 1.60 | 73 | 1009.9 |
| 20260506194548 | 58 | 348 | 1.0 | 5.0 | 0.00 | 1.60 | 1.60 | 72 | 1009.6 |
| 20260506193042 | 57 | 197 | 2.0 | 9.0 | 0.00 | 1.60 | 1.60 | 72 | 1009.3 |
| 20260506191541 | 57 | 308 | 1.0 | 4.0 | 0.00 | 1.60 | 1.60 | 73 | 1009.2 |
| 20260506190040 | 57 | 241 | 1.0 | 8.0 | 0.00 | 1.60 | 1.60 | 73 | 1009.0 |
| 20260506184540 | 57 | 309 | 1.0 | 4.0 | 0.00 | 1.60 | 1.60 | 73 | 1008.7 |
| 20260506183039 | 58 | 142 | 0.0 | 3.0 | 0.00 | 1.60 | 1.60 | 70 | 1008.9 |
| 20260506181538 | 59 | 142 | 1.0 | 5.0 | 0.00 | 1.60 | 1.60 | 70 | 1008.7 |
| 20260506180041 | 59 | 116 | 0.0 | 6.0 | 0.00 | 1.60 | 1.60 | 71 | 1008.5 |
| 20260506174536 | 58 | 134 | 0.0 | 8.0 | 0.00 | 1.60 | 1.60 | 72 | 1008.4 |
| 20260506173042 | 59 | 182 | 1.0 | 4.0 | 0.00 | 1.60 | 1.60 | 75 | 1008.2 |
| 20260506171533 | 59 | 331 | 0.0 | 2.0 | 0.00 | 1.60 | 1.60 | 79 | 1008.3 |
| 20260506170032 | 60 | 188 | 0.0 | 0.0 | 0.00 | 1.60 | 1.60 | 81 | 1008.2 |
| 20260506164537 | 60 | 188 | 0.0 | 0.0 | 0.00 | 1.60 | 1.60 | 80 | 1008.1 |
| 20260506163032 | 61 | 188 | 0.0 | 2.0 | 0.00 | 1.60 | 1.60 | 79 | 1008.1 |
| 20260506161533 | 62 | 174 | 0.0 | 4.0 | 0.00 | 1.60 | 1.60 | 76 | 1008.1 |
| 20260506160030 | 62 | 246 | 0.0 | 2.0 | 0.00 | 1.60 | 1.60 | 78 | 1008.1 |
| 20260506154528 | 63 | 198 | 0.0 | 4.0 | 0.00 | 1.60 | 1.60 | 73 | 1007.9 |
| 20260506153029 | 63 | 174 | 0.0 | 0.0 | 0.00 | 1.60 | 1.60 | 82 | 1007.8 |
| 20260506151527 | 63 | 126 | 0.0 | 2.0 | 0.00 | 1.60 | 1.60 | 83 | 1008.0 |
| 20260506150027 | 63 | 113 | 1.0 | 3.0 | 0.00 | 1.60 | 1.60 | 81 | 1008.1 |
| 20260506144531 | 64 | 74 | 0.0 | 5.0 | 0.00 | 1.60 | 1.60 | 79 | 1007.8 |
| 20260506143033 | 64 | 235 | 0.0 | 7.0 | 0.00 | 1.60 | 1.60 | 79 | 1007.9 |
| 20260506141524 | 64 | 298 | 2.0 | 8.0 | 0.00 | 1.60 | 1.60 | 76 | 1008.1 |
| 20260506140022 | 65 | 192 | 1.0 | 5.0 | 0.00 | 1.60 | 1.60 | 80 | 1008.2 |
| 20260506134520 | 65 | 360 | 2.0 | 6.0 | 0.00 | 1.60 | 1.60 | 79 | 1008.6 |
| 20260506133019 | 65 | 360 | 2.0 | 5.0 | 0.01 | 1.60 | 1.60 | 85 | 1008.5 |
| 20260506131519 | 62 | 312 | 1.0 | 6.0 | 0.02 | 1.60 | 1.60 | 85 | 1008.7 |
| 20260506130020 | 60 | 360 | 1.0 | 11.0 | 0.02 | 1.60 | 1.60 | 91 | 1008.7 |
| 20260506124518 | 61 | 210 | 0.0 | 4.0 | 0.06 | 1.60 | 1.60 | 93 | 1009.3 |
| 20260506123021 | 60 | 182 | 0.0 | 4.0 | 0.08 | 1.59 | 1.59 | 93 | 1009.1 |
| 20260506121518 | 60 | 240 | 1.0 | 10.0 | 0.13 | 1.58 | 1.58 | 92 | 1008.9 |
| 20260506120022 | 60 | 230 | 0.0 | 2.0 | 0.13 | 1.58 | 1.58 | 95 | 1008.9 |
| 20260506114519 | 61 | 224 | 0.0 | 3.0 | 0.09 | 1.54 | 1.54 | 93 | 1009.1 |
| 20260506113015 | 61 | 300 | 1.0 | 7.0 | 0.06 | 1.51 | 1.51 | 89 | 1008.9 |
| 20260506111515 | 63 | 332 | 1.0 | 7.0 | 0.00 | 1.45 | 1.45 | 84 | 1008.7 |
| 20260506110014 | 64 | 212 | 0.0 | 8.0 | 0.00 | 1.45 | 1.45 | 84 | 1008.6 |
| 20260506104513 | 65 | 207 | 2.0 | 5.0 | 0.00 | 1.46 | 1.45 | 83 | 1008.6 |
| 20260506103025 | 66 | 185 | 1.0 | 6.0 | 0.00 | 1.46 | 1.45 | 81 | 1008.7 |
| 20260506101512 | 66 | 68 | 4.0 | 13.0 | 0.00 | 1.46 | 1.45 | 82 | 1008.6 |
| 20260506100008 | 65 | 192 | 4.0 | 9.0 | 0.00 | 1.46 | 1.45 | 84 | 1008.5 |
| 20260506094506 | 63 | 178 | 3.0 | 10.0 | 0.00 | 1.69 | 1.45 | 89 | 1008.6 |
| 20260506093100 | 61 | 69 | 2.0 | 7.0 | 0.00 | 1.69 | 1.45 | 91 | 1008.7 |
| 20260506091557 | 60 | 360 | 2.0 | 8.0 | 0.01 | 1.69 | 1.45 | 93 | 1008.5 |
| 20260506090056 | 60 | 360 | 2.0 | 8.0 | 0.02 | 1.69 | 1.45 | 95 | 1008.8 |
| 20260506084552 | 59 | 360 | 1.0 | 8.0 | 0.02 | 1.92 | 1.45 | 98 | 1008.7 |
| 20260506083049 | 58 | 219 | 0.0 | 4.0 | 0.04 | 1.92 | 1.45 | 99 | 1008.6 |
| 20260506081549 | 56 | 71 | 0.0 | 4.0 | 0.09 | 1.91 | 1.44 | 98 | 1008.8 |
| 20260506073043 | 55 | 126 | 0.0 | 2.0 | 0.13 | 1.88 | 1.41 | 98 | 1008.8 |
| 20260506071549 | 55 | 223 | 0.0 | 4.0 | 0.09 | 1.83 | 1.35 | 98 | 1008.9 |
| 20260506070104 | 55 | 64 | 1.0 | 5.0 | 0.06 | 1.77 | 1.30 | 98 | 1008.8 |
| 20260506061539 | 55 | 303 | 1.0 | 3.0 | 0.16 | 1.90 | 1.26 | 99 | 1008.8 |